Location: Baili�vre
(50.0696°N, 4.2409°E)
Time: 20:13:59
(UTC+00:00)

Cosmos 2061 Rocket - Pass Details

Date: 08 August 2020
Orbit: 966 x 1012 km, 82.9° (Epoch: 21 September)

Event Time Altitude Azimuth Distance (km) Brightness Sun altitude
Exits shadow 22:41:21 42° 188° (S) 1,354 4.3 -22.5°
Maximum altitude 22:43:39 90° 105° (ESE) 977 3.9 -22.6°
Drops below altitude 10° 22:49:53 10° 10° (N) 2,719 7.2 -22.9°
Sets 22:52:24 0° 10° (N) 3,670 8.1 -23.0°
